Regional Weather Roundup
Issued by NWS Northern Indiana

Home | Current Version | Previous Version | Graphics & Text | Print | Product List | Glossary On
Versions: 1 2 3 4 5 6 7 8 9 10 11 12 13 14 15 16 17 18 19 20 21 22 23 24 25 26 27 28 29 30 31 32 33 34 35 36 37 38 39 40 41 42 43 44 45 46 47 48 49 50
000
ASUS43 KIWX 181210
RWRIWX

KIWX WEATHER ROUNDUP
NATIONAL WEATHER SERVICE NORTHERN INDIANA
700 AM EST MON DEC 18 2017

NOTE: "FAIR" INDICATES FEW OR NO CLOUDS BELOW 12,000 FEET WITH NO
SIGNIFICANT WEATHER AND/OR OBSTRUCTIONS TO VISIBILITY.

* THESE STATIONS ARE NOT UNDER NWS QUALITY CONTROL. THEY ALSO MAY NOT
  REPORT WEATHER SUCH AS PRECIPITATION OR FOG.

INZ001>027-181300-
NORTHERN INDIANA

CITY           SKY/WX    TMP DP  RH WIND       PRES   REMARKS
GARY*          CLOUDY    43  41  93 SW6       29.95S FOG
VALPARAISO     CLOUDY    43  42  97 SW10      29.96R FOG
6HR MIN TEMP:  42; 6HR MAX TEMP:  43; 6HR PCP: TRACE;

MICHIGAN CITY* LGT RAIN  41  41 100 SW9       29.95S
LAPORTE*       CLOUDY    39  39  99 SW7       29.96R FOG
6HR MIN TEMP:  38; 6HR MAX TEMP:  39;

KNOX*          CLOUDY    41  41 100 SW9       29.96S
SOUTH BEND     CLOUDY    38  38 100 SW9       29.95S FOG
6HR MIN TEMP:  37; 6HR MAX TEMP:  39; 6HR PCP: TRACE;

ELKHART*       DRIZZLE   39  37  93 SW6       29.95
GOSHEN         CLOUDY    40  38  93 SW13      29.95F FOG
6HR MIN TEMP:  38; 6HR MAX TEMP:  40; 6HR PCP: TRACE;

MONTICELLO*    DRIZZLE   41  40  96 SW9       29.99R
6HR MIN TEMP:  40; 6HR MAX TEMP:  41;

LOGANSPORT*    DRIZZLE   41  39  93 SW12      30.00R
ROCHESTER*     CLOUDY    43  43 100 SW7       29.98S FOG
WARSAW*        RAIN      39  39 100 SW6       29.97S
AUBURN*        CLOUDY    39  37  93 S7        29.98S FOG
FORT WAYNE     LGT RAIN  39  39 100 SW10      29.99S FOG
6HR MIN TEMP:  38; 6HR MAX TEMP:  39; 6HR PCP: TRACE;

HUNTINGTON*    CLOUDY    39  38  95 SW8       29.99S FOG
6HR MIN TEMP:  39; 6HR MAX TEMP:  40;

PERU/GRISSOM   LGT RAIN  41  41 100 SW13      29.99R
6HR MIN TEMP:  40; 6HR MAX TEMP:  41; 6HR PCP: TRACE;

MARION*        CLOUDY    39  38  97 SW10      30.01S FOG
6HR MIN TEMP:  26; 6HR MAX TEMP:  47;


$$
INZ028>050-181300-
CENTRAL INDIANA

CITY           SKY/WX    TMP DP  RH WIND       PRES   REMARKS
LAFAYETTE      CLOUDY    42  42 100 SW8       30.01R FOG
6HR MIN TEMP:  41; 6HR MAX TEMP:  42;

KOKOMO*        CLOUDY    41  40  96 SW12      30.01R FOG
6HR MIN TEMP:  40; 6HR MAX TEMP:  41; 6HR PCP: TRACE;

MUNCIE*        CLOUDY    41  39  93 SW10      30.01F FOG
6HR MIN TEMP:  41; 6HR MAX TEMP:  42;

INDIANAPOLIS   DRIZZLE   42  41  96 SW9       30.05R
6HR MIN TEMP:  41; 6HR MAX TEMP:  42; 6HR PCP: TRACE;


$$
MIZ043>046-050>051-056>058-064>065-071>073-077>080-181300-
SOUTHWEST LOWER MICHIGAN

CITY           SKY/WX    TMP DP  RH WIND       PRES   REMARKS
BATTLE CREEK   LGT RAIN  37  36  96 S12       29.91F FOG
6HR MIN TEMP:  37; 6HR MAX TEMP:  38; 6HR PCP:  0.01;

BENTON HARBOR  CLOUDY    41  38  89 SW12G18   29.92S FOG
6HR MIN TEMP:  39; 6HR MAX TEMP:  42;

COLDWATER*     LGT RAIN  38  38 100 SW7       29.94F
6HR MIN TEMP:  38; 6HR MAX TEMP:  38;

HILLSDALE*     DRIZZLE   36  36 100 SW6       29.93F
HOLLAND        CLOUDY    39  37  92 SW10      29.90S FOG
6HR MIN TEMP:  34; 6HR MAX TEMP:  39; 6HR PCP:  0.02;

GRAND RAPIDS   DRIZZLE   37  36  96 SW8       29.89F FOG
6HR MIN TEMP:  33; 6HR MAX TEMP:  37; 6HR PCP: TRACE;

KALAMAZOO      CLOUDY    38  36  92 S9        29.92F FOG
6HR MIN TEMP:  37; 6HR MAX TEMP:  39; 6HR PCP:  0.01;

STURGIS*       DRIZZLE   38  37  97 SW9       29.94S
6HR MIN TEMP:  37; 6HR MAX TEMP:  39;

THREE RIVERS*  DRIZZLE   38  37  98 SW7       29.94S
6HR MIN TEMP:  38; 6HR MAX TEMP:  40;


$$
OHZ001>008-015>018-024>025-181300-
NORTHWEST OHIO

CITY           SKY/WX    TMP DP  RH WIND       PRES   REMARKS
WAUSEON*       CLOUDY    37  37 100 SW9       29.97S
DEFIANCE       CLOUDY    39  35  86 SW7       29.98F
6HR MIN TEMP:  37; 6HR MAX TEMP:  39;

FINDLAY        CLOUDY    39  34  82 S12       30.00S
6HR MIN TEMP:  38; 6HR MAX TEMP:  40;

TOLEDO EXPRESS CLOUDY    38  37  97 SW8       29.98S
6HR MIN TEMP:  38; 6HR MAX TEMP:  39; 6HR PCP: TRACE;

TOLEDO METCALF CLOUDY    39  35  86 SW12      29.99F
6HR MIN TEMP:  38; 6HR MAX TEMP:  39;

LIMA           CLOUDY    38  37  97 S10       30.01S
6HR MIN TEMP:  38; 6HR MAX TEMP:  39;


$$
AND FOR LAKE MICHIGAN COASTAL AND OPEN LAKE BUOY OBSERVATIONS

STATION/POSITION TEMP    WIND        PRES    VSBY  WAVE
                 AIR SEA DIR/SP/G                  HT/PER
                 (F)     (DEG/KT/KT) (MB)    (MI)  (FT/S)
CALUMET HARBOR    42     210/  5/  9 1013.2R
MICHIGAN CITY     42     190/ 14/ 16   N/A
BURNS HARBOR      43     220/ 12/ 15 1014.6R
SAINT JOSEPH      40     210/ 13/ 16 1014.2

$$
&&




USA.gov is the U.S. government's official web portal to all federal, state and local government web resources and services.